TimeCST,TemperatureF,Dew PointF,Humidity,Sea Level PressureIn,VisibilityMPH,Wind Direction,Wind SpeedMPH,Gust SpeedMPH,PrecipitationIn,Events,Conditions,WindDirDegrees,DateUTC
12:15 AM,23.0,15.8,74,29.94,10.0,WNW,15.0,25.3,N/A,,Overcast,300,2012-12-07 06:15:00
12:35 AM,23.0,15.8,74,29.94,10.0,NW,12.7,19.6,N/A,,Overcast,310,2012-12-07 06:35:00
12:55 AM,23.0,15.8,74,29.94,10.0,NW,10.4,-,N/A,,Overcast,310,2012-12-07 06:55:00
1:15 AM,23.0,15.8,74,29.95,10.0,NW,6.9,-,N/A,,Overcast,310,2012-12-07 07:15:00
1:35 AM,23.0,15.8,74,29.95,10.0,WNW,5.8,-,N/A,,Overcast,290,2012-12-07 07:35:00
1:55 AM,23.0,15.8,74,29.95,10.0,WNW,4.6,-,N/A,,Overcast,290,2012-12-07 07:55:00
2:15 AM,23.0,15.8,74,29.95,10.0,WNW,3.5,-,N/A,,Overcast,290,2012-12-07 08:15:00
2:35 AM,23.0,15.8,74,29.95,10.0,Calm,Calm,-,N/A,,Overcast,0,2012-12-07 08:35:00
2:55 AM,23.0,15.8,74,29.95,10.0,WNW,3.5,-,N/A,,Overcast,300,2012-12-07 08:55:00
3:15 AM,23.0,17.6,80,29.95,10.0,WNW,3.5,-,N/A,,Overcast,300,2012-12-07 09:15:00
3:35 AM,23.0,17.6,80,29.95,10.0,West,3.5,-,N/A,,Overcast,280,2012-12-07 09:35:00
3:55 AM,24.8,17.6,74,29.95,10.0,WNW,4.6,-,N/A,,Overcast,290,2012-12-07 09:55:00
4:15 AM,24.8,17.6,74,29.94,10.0,WNW,4.6,-,N/A,,Overcast,300,2012-12-07 10:15:00
4:35 AM,24.8,17.6,74,29.94,10.0,WNW,5.8,-,N/A,,Overcast,290,2012-12-07 10:35:00
4:55 AM,24.8,17.6,74,29.94,10.0,WNW,6.9,-,N/A,,Overcast,290,2012-12-07 10:55:00
5:15 AM,23.0,17.6,80,29.94,10.0,WNW,5.8,-,N/A,,Scattered Clouds,300,2012-12-07 11:15:00
5:35 AM,21.2,15.8,80,29.95,10.0,WNW,8.1,-,N/A,,Clear,290,2012-12-07 11:35:00
5:55 AM,21.2,15.8,80,29.95,10.0,WNW,8.1,-,N/A,,Clear,290,2012-12-07 11:55:00
6:15 AM,21.2,15.8,80,29.96,10.0,NW,6.9,-,N/A,,Clear,310,2012-12-07 12:15:00
6:35 AM,21.2,15.8,80,29.96,10.0,WNW,6.9,-,N/A,,Clear,290,2012-12-07 12:35:00
6:55 AM,19.4,15.8,86,29.96,10.0,West,4.6,-,N/A,,Clear,280,2012-12-07 12:55:00
7:15 AM,19.4,15.8,86,29.97,10.0,WNW,4.6,-,N/A,,Clear,290,2012-12-07 13:15:00
7:35 AM,17.6,12.2,79,29.97,10.0,NW,4.6,-,N/A,,Partly Cloudy,310,2012-12-07 13:35:00
7:55 AM,19.4,15.8,86,29.98,10.0,NW,6.9,-,N/A,,Mostly Cloudy,320,2012-12-07 13:55:00
8:15 AM,17.6,14.0,86,29.98,10.0,NW,8.1,-,N/A,,Mostly Cloudy,320,2012-12-07 14:15:00
8:35 AM,17.6,12.2,79,29.99,10.0,NW,8.1,-,N/A,,Scattered Clouds,310,2012-12-07 14:35:00
8:55 AM,17.6,12.2,79,29.99,10.0,NW,8.1,-,N/A,,Partly Cloudy,310,2012-12-07 14:55:00
9:15 AM,17.6,12.2,79,30.00,10.0,NW,6.9,-,N/A,,Clear,310,2012-12-07 15:15:00
9:35 AM,17.6,12.2,79,30.01,10.0,WNW,6.9,-,N/A,,Clear,290,2012-12-07 15:35:00
9:55 AM,17.6,12.2,79,30.02,10.0,West,8.1,-,N/A,,Clear,270,2012-12-07 15:55:00
10:15 AM,17.6,12.2,79,30.03,10.0,NW,6.9,-,N/A,,Clear,320,2012-12-07 16:15:00
10:35 AM,17.6,12.2,79,30.03,10.0,NW,9.2,-,N/A,,Clear,310,2012-12-07 16:35:00
10:55 AM,17.6,12.2,79,30.03,10.0,WNW,6.9,-,N/A,,Clear,290,2012-12-07 16:55:00
11:15 AM,17.6,12.2,79,30.03,10.0,NW,9.2,-,N/A,,Clear,310,2012-12-07 17:15:00
11:35 AM,17.6,12.2,79,30.02,10.0,WNW,8.1,-,N/A,,Clear,300,2012-12-07 17:35:00
11:55 AM,19.4,12.2,74,30.01,10.0,NW,6.9,-,N/A,,Clear,320,2012-12-07 17:55:00
12:15 PM,19.4,12.2,74,30.01,10.0,NNW,6.9,-,N/A,,Partly Cloudy,330,2012-12-07 18:15:00
12:35 PM,19.4,10.4,68,30.01,10.0,NW,5.8,-,N/A,,Clear,320,2012-12-07 18:35:00
12:55 PM,19.4,10.4,68,30.01,10.0,WNW,8.1,-,N/A,,Clear,300,2012-12-07 18:55:00
1:15 PM,19.4,12.2,74,30.01,10.0,NNW,9.2,-,N/A,,Partly Cloudy,330,2012-12-07 19:15:00
1:35 PM,19.4,10.4,68,30.01,10.0,NW,8.1,-,N/A,,Partly Cloudy,310,2012-12-07 19:35:00
1:55 PM,19.4,10.4,68,30.01,10.0,NW,4.6,-,N/A,,Partly Cloudy,320,2012-12-07 19:55:00
2:15 PM,19.4,10.4,68,30.02,10.0,NW,6.9,-,N/A,,Clear,320,2012-12-07 20:15:00
2:35 PM,19.4,10.4,68,30.03,10.0,West,5.8,-,N/A,,Mostly Cloudy,280,2012-12-07 20:35:00
2:55 PM,19.4,10.4,68,30.03,10.0,NW,6.9,-,N/A,,Overcast,310,2012-12-07 20:55:00
3:15 PM,19.4,10.4,68,30.03,10.0,NNW,6.9,-,N/A,,Mostly Cloudy,330,2012-12-07 21:15:00
3:35 PM,19.4,10.4,68,30.03,10.0,NW,8.1,-,N/A,,Overcast,310,2012-12-07 21:35:00
3:55 PM,19.4,8.6,63,30.03,10.0,NW,9.2,-,N/A,,Overcast,320,2012-12-07 21:55:00
4:15 PM,17.6,8.6,68,30.03,10.0,NNW,9.2,-,N/A,,Scattered Clouds,340,2012-12-07 22:15:00
4:35 PM,17.6,8.6,68,30.03,10.0,NNW,8.1,-,N/A,,Clear,340,2012-12-07 22:35:00
4:55 PM,17.6,8.6,68,30.03,10.0,NNW,5.8,-,N/A,,Clear,340,2012-12-07 22:55:00
5:15 PM,17.6,8.6,68,30.04,10.0,NNW,8.1,-,N/A,,Clear,340,2012-12-07 23:15:00
5:35 PM,15.8,8.6,73,30.04,10.0,NNW,6.9,-,N/A,,Clear,340,2012-12-07 23:35:00
5:55 PM,15.8,8.6,73,30.04,10.0,NNW,3.5,-,N/A,,Clear,330,2012-12-07 23:55:00
6:15 PM,15.8,8.6,73,30.05,10.0,Calm,Calm,-,N/A,,Clear,0,2012-12-08 00:15:00
6:35 PM,15.8,8.6,73,30.04,10.0,Calm,Calm,-,N/A,,Clear,0,2012-12-08 00:35:00
6:55 PM,14.0,6.8,73,30.04,10.0,North,3.5,-,N/A,,Clear,350,2012-12-08 00:55:00
7:15 PM,14.0,8.6,79,30.04,10.0,North,3.5,-,N/A,,Clear,350,2012-12-08 01:15:00
7:35 PM,12.2,6.8,79,30.04,10.0,North,3.5,-,N/A,,Clear,360,2012-12-08 01:35:00
7:55 PM,12.2,6.8,79,30.04,10.0,North,5.8,-,N/A,,Clear,350,2012-12-08 01:55:00
8:15 PM,12.2,6.8,79,30.04,10.0,North,5.8,-,N/A,,Clear,350,2012-12-08 02:15:00
8:35 PM,12.2,6.8,79,30.04,10.0,North,5.8,-,N/A,,Clear,350,2012-12-08 02:35:00
8:55 PM,12.2,8.6,85,30.04,10.0,North,3.5,-,N/A,,Clear,350,2012-12-08 02:55:00
9:15 PM,12.2,6.8,79,30.04,10.0,NNW,3.5,-,N/A,,Mostly Cloudy,330,2012-12-08 03:15:00
9:35 PM,12.2,8.6,85,30.04,10.0,North,5.8,-,N/A,,Overcast,360,2012-12-08 03:35:00
9:55 PM,12.2,6.8,79,30.04,10.0,North,4.6,-,N/A,,Overcast,350,2012-12-08 03:55:00
10:15 PM,12.2,6.8,79,30.04,10.0,North,5.8,-,N/A,,Overcast,350,2012-12-08 04:15:00
10:35 PM,12.2,6.8,79,30.04,10.0,North,4.6,-,N/A,,Overcast,10,2012-12-08 04:35:00
10:55 PM,12.2,6.8,79,30.04,10.0,Calm,Calm,-,N/A,,Overcast,0,2012-12-08 04:55:00
11:15 PM,12.2,6.8,79,30.05,10.0,Calm,Calm,-,N/A,,Overcast,0,2012-12-08 05:15:00
11:35 PM,14.0,6.8,73,30.05,10.0,NNE,4.6,-,N/A,,Overcast,20,2012-12-08 05:35:00
11:55 PM,14.0,6.8,73,30.05,10.0,NNE,3.5,-,N/A,,Overcast,20,2012-12-08 05:55:00